Weather History for KCEW - December, 2013

Change the Weather History Date:

Tuesday, December 3, 2013

  Actual Average Record
Temperature  
Mean Temperature 64 °F -  
Max Temperature 79 °F 67 °F 82 °F (1978)
Min Temperature 48 °F 42 °F 26 °F (1976)
Degree Days  
Heating Degree Days 2    
Growing Degree Days 14 (Base 50)    
Moisture  
Dew Point 58 °F    
Average Humidity 85    
Maximum Humidity 97    
Minimum Humidity 50    
Precipitation  
Precipitation 0.00 in - - ()
Sea Level Pressure  
Sea Level Pressure 29.87 in    
Wind  
Wind Speed 3 mph (South)    
Max Wind Speed 15 mph    
Max Gust Speed 21 mph    
Visibility 6 miles    
Events Fog    
Averages and records for this station are not official NWS values.
T = Trace of Precipitation, MM = Missing Value Source: NWS Daily Summary

Daily Weather History Graph

Daily Weather History Graph

Search for Another Location

Airport or City:

Trip Planner

Search our weather history database for the weather conditions in past years. The results will help you decide how hot, cold, wet, or windy it might be!

Date:

Astronomy

Dec. 03, 2013 Rise Set
Actual Time 6:27 AM CST 4:44 PM CST
Civil Twilight 6:01 AM CST 5:10 PM CST
Nautical Twilight 5:31 AM CST 5:40 PM CST
Astronomical Twilight 5:02 AM CST 6:09 PM CST
Moon 6:58 AM CST (12/3) 5:45 PM CST (12/3)
Length of Visible Light 11h 08m
Length of Day
10h 16m
New Moon, 1% of the Moon is Illuminated
Dec 3
New Moon
Dec 9
First Quarter
Dec 17
Full
Dec 25
Last Quarter
Jan 1
New

Hourly Weather History & Observations

Time (CST) Temp. Dew Point Humidity Pressure Visibility Wind Dir Wind Speed Gust Speed Precip Events Conditions
12:53 AM 50.0 °F 48.0 °F 93% 29.86 in 4.0 mi Calm Calm - N/A   Clear
1:12 AM 50.0 °F 48.0 °F 93% 29.86 in 2.5 mi Calm Calm - N/A   Scattered Clouds
1:22 AM 51.1 °F 48.9 °F 92% 29.85 in 4.0 mi Calm Calm - N/A   Mostly Cloudy
1:53 AM 51.1 °F 48.0 °F 89% 29.85 in 5.0 mi Calm Calm - N/A   Scattered Clouds
2:53 AM 50.0 °F 46.9 °F 89% 29.84 in 5.0 mi Calm Calm - N/A   Clear
3:53 AM 48.9 °F 46.9 °F 93% 29.84 in 6.0 mi Calm Calm - N/A   Partly Cloudy
4:51 AM 48.2 °F 46.4 °F 93% 29.84 in 6.0 mi Calm Calm - N/A   Scattered Clouds
4:53 AM 48.9 °F 46.9 °F 93% 29.83 in 6.0 mi Calm Calm - N/A   Scattered Clouds
5:53 AM 53.1 °F 51.1 °F 93% 29.84 in 8.0 mi Calm Calm - N/A   Overcast
6:53 AM 55.9 °F 54.0 °F 93% 29.85 in 6.0 mi Calm Calm - N/A   Overcast
7:53 AM 64.0 °F 60.1 °F 87% 29.86 in 10.0 mi Calm Calm - N/A   Mostly Cloudy
8:53 AM 70.0 °F 62.1 °F 76% 29.89 in 10.0 mi SSE 4.6 mph - N/A   Clear
9:53 AM 73.0 °F 63.0 °F 71% 29.89 in 10.0 mi South 8.1 mph - N/A   Partly Cloudy
10:53 AM 73.9 °F 61.0 °F 64% 29.87 in 10.0 mi SW 11.5 mph - N/A   Clear
11:53 AM 78.1 °F 59.0 °F 52% 29.85 in 10.0 mi SW 13.8 mph - N/A   Scattered Clouds
12:53 PM 79.0 °F 59.0 °F 50% 29.83 in 10.0 mi SSW 15.0 mph 20.7 mph N/A   Partly Cloudy
1:53 PM 75.9 °F 60.1 °F 58% 29.82 in 10.0 mi South 9.2 mph - N/A   Mostly Cloudy
2:53 PM 75.0 °F 59.0 °F 57% 29.82 in 8.0 mi South 12.7 mph - N/A   Mostly Cloudy
3:53 PM 73.0 °F 61.0 °F 66% 29.82 in 10.0 mi South 10.4 mph - N/A   Mostly Cloudy
4:53 PM 71.1 °F 62.1 °F 73% 29.83 in 10.0 mi SSW 8.1 mph - N/A   Overcast
5:53 PM 68.0 °F 62.1 °F 81% 29.86 in 10.0 mi South 3.5 mph - N/A   Mostly Cloudy
6:20 PM 68.0 °F 62.1 °F 81% 29.87 in 10.0 mi South 3.5 mph - N/A   Mostly Cloudy
6:42 PM 66.0 °F 62.1 °F 87% 29.88 in 10.0 mi Calm Calm - N/A   Mostly Cloudy
6:53 PM 66.0 °F 61.0 °F 84% 29.88 in 10.0 mi Calm Calm - N/A   Overcast
7:53 PM 64.9 °F 62.1 °F 90% 29.87 in 10.0 mi South 4.6 mph - N/A   Clear
8:53 PM 64.0 °F 62.1 °F 93% 29.88 in 10.0 mi South 4.6 mph - N/A   Clear
9:53 PM 63.0 °F 60.1 °F 90% 29.90 in 2.0 mi Calm Calm - N/A   Partly Cloudy
10:00 PM 61.0 °F 60.1 °F 97% 29.90 in 1.8 mi Calm Calm - N/A   Scattered Clouds
10:02 PM 62.1 °F 60.1 °F 93% 29.90 in 2.5 mi South 3.5 mph - N/A   Mostly Cloudy
10:09 PM 63.0 °F 62.1 °F 97% 29.90 in 7.0 mi South 3.5 mph - N/A   Mostly Cloudy
10:18 PM 64.0 °F 62.1 °F 93% 29.90 in 8.0 mi South 5.8 mph - N/A   Mostly Cloudy
10:53 PM 63.0 °F 61.0 °F 93% 29.90 in 4.0 mi South 3.5 mph - N/A   Clear
10:59 PM 63.0 °F 61.0 °F 93% 29.91 in 1.8 mi Calm Calm - N/A   Partly Cloudy
11:04 PM 62.1 °F 61.0 °F 96% 29.90 in 0.5 mi Calm Calm - N/A Fog Fog
11:16 PM 62.1 °F 61.0 °F 96% 29.90 in 0.8 mi South 3.5 mph - N/A   Mostly Cloudy
11:22 PM 62.1 °F 60.1 °F 93% 29.90 in 1.0 mi South 3.5 mph - N/A   Scattered Clouds
11:25 PM 62.1 °F 60.1 °F 93% 29.90 in 0.8 mi Calm Calm - N/A   Mist
11:38 PM 61.0 °F 60.1 °F 97% 29.90 in 0.5 mi South 3.5 mph - N/A Fog Fog
11:53 PM 61.0 °F 60.1 °F 97% 29.89 in 0.2 mi Calm Calm - N/A Fog Fog